Salida, CO

10:54 PM MDT on June 23, 2017 (GMT -0600)
Salida

Weather History for KANK - October, 2012

Change the Weather History Date:

Saturday, October 20, 2012

  Actual Average (KGUC) Record (KGUC)
Temperature  
Mean Temperature 56 °F -  
Max Temperature 72 °F 54 °F 69 °F (2003)
Min Temperature 39 °F 21 °F 12 °F (1999)
Degree Days  
Heating Degree Days 10    
Growing Degree Days 6 (Base 50)    
Moisture  
Dew Point 11 °F    
Average Humidity 18    
Maximum Humidity 34    
Minimum Humidity 7    
Precipitation  
Precipitation 0.00 in - - ()
Sea Level Pressure  
Sea Level Pressure 30.07 in    
Wind  
Wind Speed 7 mph (WSW)    
Max Wind Speed 23 mph    
Max Gust Speed 37 mph    
Visibility 10 miles    
Events      
Averages and records for this station are not official NWS values.
T = Trace of Precipitation, MM = Missing Value Source: NWS Daily Summary

Daily Weather History Graph

Daily Weather History Graph

Search for Another Location

Airport or City:

Trip Planner

Search our weather history database for the weather conditions in past years. The results will help you decide how hot, cold, wet, or windy it might be!

Date:

Astronomy

Oct. 20, 2012 Rise Set
Actual Time 7:18 AM MDT 6:18 PM MDT
Civil Twilight 6:51 AM MDT 6:45 PM MDT
Nautical Twilight 6:20 AM MDT 7:16 PM MDT
Astronomical Twilight 5:50 AM MDT 7:46 PM MDT
Moon 12:54 PM MDT (10/20) 11:09 PM MDT (10/20)
Length of Visible Light 11h 53m
Length of Day
10h 59m
Waxing Crescent, 35% of the Moon is Illuminated
Oct 20
Waxing Crescent
Oct 21
First Quarter
Oct 29
Full
Nov 6
Last Quarter
Nov 13
New

Hourly Weather History & Observations

Time (MDT) Temp. Windchill Dew Point Humidity Pressure Visibility Wind Dir Wind Speed Gust Speed Precip Events Conditions
12:15 AM 50.2 °F - 9.9 °F 20% 30.15 in 10.0 mi Calm Calm - N/A   Clear
12:35 AM 47.3 °F - 11.3 °F 23% 30.15 in 10.0 mi Calm Calm - N/A   Clear
12:55 AM 46.0 °F 44.8 °F 11.7 °F 25% 30.15 in 10.0 mi West 3.5 mph - N/A   Clear
1:15 AM 46.9 °F - 11.8 °F 24% 30.15 in 10.0 mi WSW 4.6 mph - N/A   Clear
1:35 AM 48.6 °F - 12.2 °F 23% 30.15 in 10.0 mi WNW 4.6 mph - N/A   Clear
1:55 AM 47.7 °F - 12.2 °F 24% 30.15 in 10.0 mi WNW 3.5 mph - N/A   Clear
2:15 AM 48.7 °F - 12.6 °F 23% 30.15 in 10.0 mi NNW 6.9 mph - N/A   Clear
2:35 AM 48.9 °F - 12.6 °F 23% 30.15 in 10.0 mi NNW 5.8 mph - N/A   Clear
2:55 AM 48.0 °F - 13.1 °F 25% 30.15 in 10.0 mi WNW 8.1 mph - N/A   Clear
3:15 AM 46.2 °F 43.3 °F 13.3 °F 27% 30.14 in 10.0 mi WNW 5.8 mph - N/A   Clear
3:55 AM 45.1 °F 42.8 °F 12.7 °F 27% 30.13 in 10.0 mi NNW 4.6 mph - N/A   Clear
4:15 AM 45.1 °F 42.8 °F 12.2 °F 26% 30.13 in 10.0 mi SE 4.6 mph - N/A   Clear
4:35 AM 42.3 °F 39.4 °F 12.6 °F 30% 30.14 in 10.0 mi North 4.6 mph - N/A   Clear
4:55 AM 44.2 °F - 13.1 °F 28% 30.14 in 10.0 mi Calm Calm - N/A   Clear
5:15 AM 43.5 °F 38.3 °F 13.1 °F 29% 30.14 in 10.0 mi NNW 9.2 mph - N/A   Clear
5:35 AM 44.1 °F 39.0 °F 12.9 °F 28% 30.14 in 10.0 mi NNW 9.2 mph - N/A   Clear
5:55 AM 43.0 °F 40.3 °F 13.1 °F 30% 30.14 in 10.0 mi NNW 4.6 mph - N/A   Clear
6:15 AM 42.4 °F 37.0 °F 13.1 °F 30% 30.14 in 10.0 mi North 9.2 mph - N/A   Clear
6:35 AM 41.4 °F 37.6 °F 13.1 °F 32% 30.14 in 10.0 mi North 5.8 mph - N/A   Clear
6:55 AM 39.7 °F 34.3 °F 13.1 °F 34% 30.14 in 10.0 mi North 8.1 mph - N/A   Clear
7:15 AM 42.3 °F 35.9 °F 13.1 °F 31% 30.15 in 10.0 mi NNW 11.5 mph - N/A   Clear
7:55 AM 42.3 °F 36.8 °F 12.9 °F 30% 30.15 in 10.0 mi North 9.2 mph - N/A   Clear
8:15 AM 44.2 °F 38.4 °F 13.1 °F 28% 30.15 in 10.0 mi North 11.5 mph - N/A   Clear
8:35 AM 45.7 °F 41.0 °F 13.8 °F 28% 30.15 in 10.0 mi NNW 9.2 mph - N/A   Clear
8:55 AM 48.0 °F - 14.4 °F 26% 30.15 in 10.0 mi NNW 10.4 mph - N/A   Clear
9:15 AM 50.0 °F - 14.7 °F 25% 30.15 in 10.0 mi NW 5.8 mph - N/A   Clear
9:35 AM 52.0 °F - 14.9 °F 23% 30.15 in 10.0 mi NNW 8.1 mph - N/A   Clear
9:55 AM 54.7 °F - 15.1 °F 21% 30.14 in 10.0 mi SW 5.8 mph - N/A   Clear
10:15 AM 55.9 °F - 14.9 °F 20% 30.14 in 10.0 mi North 3.5 mph - N/A   Clear
10:35 AM 59.0 °F - 15.1 °F 18% 30.14 in 10.0 mi WNW 3.5 mph - N/A   Clear
10:55 AM 64.0 °F - 10.8 °F 12% 30.12 in 10.0 mi SW 18.4 mph 24.2 mph N/A   Clear
11:15 AM 64.6 °F - 10.4 °F 12% 30.11 in 10.0 mi SSW 17.3 mph 24.2 mph N/A   Clear
11:35 AM 65.8 °F - 10.8 °F 12% 30.10 in 10.0 mi SSW 17.3 mph 25.3 mph N/A   Clear
11:55 AM 67.1 °F - 9.9 °F 11% 30.09 in 10.0 mi SSW 15.0 mph 25.3 mph N/A   Clear
12:15 PM 68.2 °F - 9.5 °F 10% 30.07 in 10.0 mi SSW 17.3 mph 27.6 mph N/A   Clear
12:35 PM 69.6 °F - 4.3 °F 8% 30.06 in 10.0 mi SW 13.8 mph 27.6 mph N/A   Clear
12:55 PM 70.9 °F - 4.3 °F 7% 30.05 in 10.0 mi SW 13.8 mph 27.6 mph N/A   Clear
1:15 PM 71.1 °F - 4.8 °F 8% 30.04 in 10.0 mi SW 20.7 mph 29.9 mph N/A   Clear
1:35 PM 70.3 °F - 5.4 °F 8% 30.03 in 10.0 mi West 23.0 mph 31.1 mph N/A   Clear
1:55 PM 70.0 °F - 5.0 °F 8% 30.01 in 10.0 mi West 17.3 mph 25.3 mph N/A   Clear
2:15 PM 71.4 °F - 7.0 °F 8% 30.00 in 10.0 mi West 16.1 mph 26.5 mph N/A   Clear
2:35 PM 71.6 °F - 8.2 °F 9% 29.99 in 10.0 mi West 17.3 mph 36.8 mph N/A   Clear
2:55 PM 72.7 °F - 7.9 °F 8% 29.99 in 10.0 mi West 17.3 mph 26.5 mph N/A   Clear
3:15 PM 72.7 °F - 10.9 °F 9% 29.99 in 10.0 mi SSW 16.1 mph 25.3 mph N/A   Clear
3:35 PM 72.5 °F - 11.3 °F 10% 29.98 in 10.0 mi SSW 12.7 mph 21.9 mph N/A   Clear
3:55 PM 71.8 °F - 11.8 °F 10% 29.98 in 10.0 mi SSW 12.7 mph 18.4 mph N/A   Clear
4:15 PM 71.1 °F - 11.8 °F 10% 29.98 in 10.0 mi SSW 11.5 mph 20.7 mph N/A   Clear
4:35 PM 71.8 °F - 11.7 °F 10% 29.98 in 10.0 mi SSW 12.7 mph 17.3 mph N/A   Clear
4:55 PM 71.6 °F - 11.1 °F 10% 29.97 in 10.0 mi SW 12.7 mph 19.6 mph N/A   Clear
5:15 PM 70.5 °F - 10.6 °F 10% 29.97 in 10.0 mi SW 9.2 mph - N/A   Clear
5:35 PM 69.4 °F - 9.0 °F 10% 29.97 in 10.0 mi SSW 5.8 mph 19.6 mph N/A   Clear
5:55 PM 67.8 °F - 7.3 °F 9% 29.98 in 10.0 mi WSW 10.4 mph 17.3 mph N/A   Clear
6:15 PM 63.0 °F - 8.8 °F 12% 29.98 in 10.0 mi SSW 4.6 mph - N/A   Clear
6:55 PM 61.9 °F - 11.1 °F 14% 29.98 in 10.0 mi SSW 9.2 mph - N/A   Clear
7:15 PM 61.7 °F - 11.1 °F 14% 29.99 in 10.0 mi SSW 9.2 mph - N/A   Clear
7:35 PM 61.3 °F - 10.6 °F 14% 29.99 in 10.0 mi SSW 9.2 mph - N/A   Clear
7:55 PM 61.0 °F - 10.4 °F 14% 29.99 in 10.0 mi SSW 6.9 mph - N/A   Clear
8:15 PM 60.1 °F - 10.8 °F 14% 30.00 in 10.0 mi West 8.1 mph - N/A   Clear
8:35 PM 56.5 °F - 12.4 °F 17% 30.00 in 10.0 mi WSW 9.2 mph - N/A   Clear
8:55 PM 54.5 °F - 13.1 °F 19% 30.01 in 10.0 mi WSW 10.4 mph - N/A   Clear
9:15 PM 54.0 °F - 13.1 °F 20% 30.02 in 10.0 mi WSW 10.4 mph - N/A   Clear
9:55 PM 54.1 °F - 12.4 °F 19% 30.02 in 10.0 mi SSW 10.4 mph - N/A   Clear
10:15 PM 54.5 °F - 11.5 °F 18% 30.03 in 10.0 mi SW 12.7 mph - N/A   Clear
10:35 PM 54.9 °F - 10.6 °F 17% 30.03 in 10.0 mi SW 13.8 mph 18.4 mph N/A   Clear
10:55 PM 54.7 °F - 10.2 °F 17% 30.03 in 10.0 mi SW 13.8 mph - N/A   Clear
11:15 PM 53.2 °F - 10.8 °F 18% 30.03 in 10.0 mi SW 11.5 mph - N/A   Clear
11:35 PM 52.0 °F - 10.2 °F 19% 30.03 in 10.0 mi WSW 10.4 mph - N/A   Clear
11:55 PM 51.4 °F - 10.0 °F 19% 30.03 in 10.0 mi SW 9.2 mph - N/A   Clear